Notices

What's New in latest Release from April 7th, 2021:

- Updated Glossary, including Speed of Maximum Gust, and Total Hourly Precipitation

- Updated national and regional climate services offices contacts and prices information

- Addition of station inventory lists for 1981-2010, 1971-2000, and 1961-1990 Normals.

If you haven't already, please take our survey and provide feedback about our website: https://eccc.sondage-survey.ca/f/LanguageSelection.aspx?s=442ca660-fcf1-47c0-95a9-59707d6fd709

Hourly Data Report for October 11, 2019

SAINT JOHN A
NEW BRUNSWICK
Current Station Operator: NAVCAN

45°18'58.000" N
65°53'24.000" W
108.80 m
8104901
71609
YSJ

Download Data

Hourly Data (October 2019)
Hourly Data Report for October 11, 2019
TIME
LST
Temp Definition
°C
Dew Point Definition
°C
Rel Hum Definition
%
Precip. Amount Definition
mm

Wind Dir Definition
10's deg

Wind Spd Definition
km/h
Visibility Definition
km
Stn Press Definition
kPa
Hmdx Definition


Wind Chill Definition


Weather Definition


00:00 5.9 4.3 90   3 14 24.1 101.61     LegendNANA
01:00 6.5 4.8 89   2 14 24.1 101.62     LegendNANA
02:00 6.6 4.6 87   3 11 24.1 101.60     Mostly Cloudy
03:00 8.1 4.5 78   1 13 24.1 101.58     LegendNANA
04:00 8.2 4.4 77   1 14 24.1 101.61     LegendNANA
05:00 7.8 4.3 78   3 12 24.1 101.60     Mostly Cloudy
06:00 6.6 4.9 89   36 11 24.1 101.60     LegendNANA
07:00 6.7 5.3 91   36 9 24.1 101.66     LegendNANA
08:00 8.1 6.0 87   2 10 24.1 101.65     Mostly Cloudy
09:00 9.3 6.9 85   36 15 24.1 101.66     LegendNANA
10:00 11.5 7.1 74   2 14 24.1 101.63     LegendNANA
11:00 13.7 5.8 58   5 19 24.1 101.58     Mostly Cloudy
12:00 14.1 4.0 50   5 17 24.1 101.48     LegendNANA
13:00 16.7 2.4 38   6 28 24.1 101.40     LegendNANA
14:00 14.8 2.4 43   7 31 24.1 101.39     Mostly Cloudy
15:00 15.1 3.9 47   7 26 24.1 101.35     LegendNANA
16:00 14.6 5.1 53   6 22 24.1 101.31     LegendNANA
17:00 14.0 6.7 61   6 14 24.1 101.30     Cloudy
18:00 13.4 7.1 65   6 25 24.1 101.30     LegendNANA
19:00 12.6 5.9 63   6 22 24.1 101.30     LegendNANA
20:00 12.0 5.8 66   7 24 24.1 101.27     Cloudy
21:00 11.6 5.7 67   6 27 24.1 101.22     LegendNANA
22:00 11.4 5.4 66   6 21 24.1 101.11     LegendNANA
23:00 11.7 4.2 60   7 24 24.1 101.02     Cloudy

Notes on Data Quality.

Legend

  • E = Estimated
  • M = Missing
  • NA = Not Available*
  • [empty] = Indicates an unobserved value
Date modified: